User: anonymous   Login
Location: ??
(35.5052°N, 139.7262°E)
Time: 23:16:08
(UTC+00:00)
Language:

Meteor 1-24 Rocket - Orbit

View from above orbital plane
View from above orbital plane
View from above satellite
View from above satellite

Ground track
Ground track

The orbit data is extracted from the following two-line orbital elements,

1  8800U 76032B   21269.56570052 -.00000073  00000-0 -46829-4 0  9999
2  8800  81.2498 137.3109 0095196  81.4595 279.7349 14.10168900338371
Epoch (UTC): 26 September 2021 13:34:36
Eccentricity: 0.0095196
inclination: 81.2498°
perigee height: 790 km
apogee height: 927 km
right ascension of ascending node: 137.3109°
argument of perigee: 81.4595°
revolutions per day: 14.10168900
mean anomaly at epoch: 279.7349°
orbit number at epoch: 33837

The dashed part of the orbit path shows where the satellite is in the earth's shadow,  

DLR